Regional Weather Roundup
Issued by NWS

Home | Current Version | Previous Version | Text Only | Print | Product List | Glossary Off
Versions: 1 2 3 4 5 6 7 8 9 10 11 12 13 14 15 16 17 18 19 20 21 22 23 24 25 26 27 28 29 30 31 32 33 34 35 36 37 38 39 40 41 42 43 44 45 46 47 48 49 50

000
ASUS43 KIND 020409
RWRIN

WEATHER ROUNDUP FOR INDIANA
NATIONAL WEATHER SERVICE INDIANAPOLIS IN
1100 PM EST SUN MAR 01 2015

NOTE: "FAIR" INDICATES FEW OR NO CLOUDS BELOW 12,000 FEET WITH NO
SIGNIFICANT WEATHER AND/OR OBSTRUCTIONS TO VISIBILITY.

* - STATION DOES NOT REPORT WEATHER SUCH AS PRECIPITATION OR FOG.

+ - STATION NOT QUALITY CONTROLLED BY THE NATIONAL WEATHER SERVICE.
    USE DATA WITH CAUTION...ESPECIALLY DEWPOINT AND RELATIVE
    HUMIDITY OBSERVATIONS.

INZ001>003-010>013-019-020-020500-
NORTHWEST INDIANA

CITY           SKY/WX    TMP DP  RH WIND       PRES   REMARKS
GARY /AIRPORT/ PTCLDY    22  12  66 SW6       30.35R WCI  14
KNOX *+          N/A     18   5  57 W9        30.34R WCI   6
LA PORTE +     MOCLDY    19  14  81 W7        30.33R WCI  10
MICHIGAN CITY+ PTCLDY    19  10  68 SW6       30.33R WCI  11
MONTICELLO +   MOCLDY    17  14  90 W9        30.37R WCI   5
RENSSELAER +   MOCLDY    18  18 100 W9        30.38R WCI   6
VALPARAISO     MOCLDY    17  12  80 W13       30.33R WCI   4

$$

LMZ046-743>745-020500-
SOUTHERN LAKE MICHIGAN

STATION/POSITION TIME  TEMP WIND        PRES
                       AIR  DIR/SP/G
                 (UTC) (F)  (DEG/KT/KT) (MB)
MICHIGAN CITY    0400   18  210/ 12/ 15   N/A

$$

INZ004-005-014>016-021>024-020500-
NORTH CENTRAL INDIANA

CITY           SKY/WX    TMP DP  RH WIND       PRES   REMARKS
GOSHEN         PTCLDY    18  13  80 W14       30.30R WCI   4
LOGANSPORT +   PTCLDY    14  12  92 W8        30.37R WCI   3
PERU/GRISSOM   CLOUDY    18  15  90 W13       30.34R WCI   5
ROCHESTER +    PTCLDY    21  19  93 W7        30.34R WCI  13
SOUTH BEND     PTCLDY    18  12  77 SW8       30.31R WCI   8
WARSAW +       PTCLDY    21  18  86 W13       30.31R WCI   9

$$

INZ006>009-017-018-025>027-020500-
NORTHEAST INDIANA

CITY           SKY/WX    TMP DP  RH WIND       PRES   REMARKS
ANGOLA *+      CLOUDY    21  10  63 VRB6      30.25R WCI  14
AUBURN +       CLOUDY    23  19  86 W20       30.29R WCI   8
FORT WAYNE     FLURRIES  21  18  88 W15       30.31R WCI   8
HUNTINGTON +   PTCLDY    20  15  79 W10G17    30.32R WCI   9

$$

INZ028-029-035-036-043>045-051>053-020500-
WEST CENTRAL INDIANA

CITY           SKY/WX    TMP DP  RH WIND       PRES   REMARKS
CRAWFORDSVL +  CLOUDY    21  15  76 W9        30.39R WCI  11
GREENCASTLE +  CLOUDY    25  19  80 NW5       30.39R WCI  19
LAFAYETTE      PTCLDY    17  15  92 W6        30.39R WCI   9
TERRE HAUTE    CLOUDY    24  19  81 NW7       30.43R WCI  16

$$

INZ030>032-037>040-046>048-054>057-064-065-020500-
CENTRAL INDIANA

CITY           SKY/WX    TMP DP  RH WIND       PRES   REMARKS
CP ATTERBURY + CLOUDY    30  27  86 NW10      30.37R WCI  21
FRANKFORT +    PTCLDY    19  19 100 W10       30.39R WCI   7
GREENWOOD *+   MOCLDY    27  19  74 NW8       30.37R WCI  18
INDIANAPOLIS   MOCLDY    24  19  81 NW14      30.36R WCI  12
-EAGLE CREEK   PTCLDY    22  19  89 NW9       30.37R WCI  12
KOKOMO *+      FAIR      18  14  86 W10       30.35R WCI   6
MARION +       PTCLDY    17  15  93 W15       30.35R WCI   2
MT COMFORT *+  CLOUDY    25  18  74 W15       30.36R WCI  12
SHELBYVILLE    CLOUDY    29  23  78 W8        30.35R WCI  21
ZIONSVILLE +   PTCLDY    22  18  83 NW9       30.37R WCI  12

$$

INZ033-034-041-042-049-050-058-059-020500-
EAST CENTRAL INDIANA

CITY           SKY/WX    TMP DP  RH WIND       PRES   REMARKS
MUNCIE         CLOUDY    23  20  88 W13       30.33R WCI  11

$$

INZ060-061-067>069-081>083-085>088-020500-
SOUTHWEST INDIANA

CITY           SKY/WX    TMP DP  RH WIND       PRES   REMARKS
EVANSVILLE     CLOUDY    33  26  75 NW9       30.43R WCI  25
HUNTINGBURG *+ PTCLDY    32  27  80 NW12      30.41R WCI  23
WASHINGTON +   CLOUDY    28  23  80 NW13      30.42R WCI  18

$$

INZ062-063-066-070>080-084-089>092-020500-
SOUTH CENTRAL AND SOUTHEAST INDIANA

CITY           SKY/WX    TMP DP  RH WIND       PRES   REMARKS
BLOOMINGTON    CLOUDY    27  22  81 NW8       30.37R WCI  19
NORTH VERNON + CLOUDY    32  32 100 NW10      30.35R WCI  24
SEYMOUR +      CLOUDY    34  28  80 NW8       30.36R WCI  27

$$



USA.gov is the U.S. government's official web portal to all federal, state and local government web resources and services.